Regional Weather Roundup
Issued by NWS

Home | Current Version | Previous Version | Text Only | Print | Product List | Glossary Off
Versions: 1 2 3 4 5 6 7 8 9 10 11 12 13 14 15 16 17 18 19 20 21 22 23 24 25 26 27 28 29 30 31 32 33 34 35 36 37 38 39 40 41 42 43 44 45 46 47 48 49 50

689
ASUS45 KBOI 251310
RWRID

IDAHO REGIONAL WEATHER ROUNDUP
NATIONAL WEATHER SERVICE BOISE ID
600 AM MST SAT FEB 25 2017

NOTE: "FAIR" INDICATES FEW OR NO CLOUDS BELOW 12000 FEET
WITH NO SIGNIFICANT WEATHER AND/OR OBSTRUCTIONS TO VISIBILITY

IDZ012-014-251400-
SOUTHWEST IDAHO


CITY           SKY/WX    TMP DP  RH WIND       PRES   REMARKS
BOISE          CLEAR     22  14  71 E5        30.13S WCI  16
CALDWELL       CLEAR     20  17  88 NE5       30.16S WCI  13
MOUNTAIN HOME  CLEAR     19  19 100 E3        30.13S
$$

IDZ016-017-251400-
SOUTHCENTRAL IDAHO


CITY           SKY/WX    TMP DP  RH WIND       PRES   REMARKS
BURLEY         MOCLDY    20  10  65 NW3       30.06S
JEROME           N/A    N/A N/A N/A MISG      30.08F
TWIN FALLS     CLOUDY    18   7  62 SW12      30.07F WCI   5
$$

IDZ019>023-251400-
SOUTHEAST IDAHO


CITY           SKY/WX    TMP DP  RH WIND       PRES   REMARKS
IDAHO FALLS    CLOUDY     9   6  88 W8        30.02F WCI  -3
POCATELLO      CLOUDY     8   3  80 CALM      30.05F
REXBURG        CLOUDY    11   6  81 W5        30.01F WCI   3
$$

IDZ006-010-011-018-031-032-251400-
CENTRAL IDAHO MOUNTAINS


CITY           SKY/WX    TMP DP  RH WIND       PRES   REMARKS
MCCALL         CLOUDY     7   2  80 CALM      30.01F
HAILEY         PTCLDY     9   3  78 NW9       30.02F WCI  -5
STANLEY          N/A      1  -3  83 S5        29.97S WCI  -9
SALMON         CLOUDY    23  19  86 CALM      30.02S
CHALLIS        CLEAR     12   4  70 W3        30.00S
$$

IDZ002-004-006-007-026-251400-
NORTHERN IDAHO


CITY           SKY/WX    TMP DP  RH WIND       PRES   REMARKS
LEWISTON       CLEAR     23  18  81 CALM      30.17S
LOWELL           N/A     27  22  81 CALM      30.20F
COEUR D`ALENE  CLOUDY    18  18 100 CALM      30.10F FOG
MULLAN PASS    FLURRIES  12  10  92 VRB6      29.87F WCI   3
$$




USA.gov is the U.S. government's official web portal to all federal, state and local government web resources and services.